Location: Linz
(48.3300°N, 14.3000°E)
Time: 07:30:07
(UTC+01:00)

Envisat - Pass Details

Date: 15 November 2017
Orbit: 764 x 766 km, 98.2° (Epoch: 17 November)

Event Time Altitude Azimuth Distance (km) Brightness Sun altitude
Exits shadow 20:37:51 11° 327° (NNW) 2,239 5.8 -41.7°
Drops below altitude 10° 20:37:59 10° 328° (NNW) 2,282 5.9 -41.7°
Sets 20:40:38 0° 339° (NNW) 3,243 6.7 -42.2°
